Probability
0 0 0 0 1 2 3 3 1 1 1 2 1 0 0 0 0 0 0 0 0 0 0 0 0 0 0 0 0 0 0 0 0 0 0 0 0 0 0 0 0 0 0
0 0 0 0 0 1 2 2 2 2 2 2 1 0 0 0 0 0 0 0 0 0 0 0 0 0 0 0 0 0 0 0 0 0 0 0 0 0 0 0 0 0 0
0 0 0 0 0 0 1 1 2 2 2 2 2 1 0 0 0 0 0 0 0 0 0 0 0 0 0 0 0 0 0 0 0 0 0 0 0 0 0 0 0 0 0
0 0 0 0 0 0 0 0 1 1 1 1 1 1 0 0 0 0 0 0 0 0 0 0 0 0 0 0 0 0 0 0 0 0 0 0 0 0 0 0 0 0 0
0 0 0 0 0 0 0 0 0 0 0 0 0 0 0 0 0 0 0 0 0 0 0 0 0 0 0 0 0 0 0 0 0 0 0 0 0 0 0 0 0 0 0
0 0 0 0 0 0 0 0 0 0 0 0 0 0 0 0 0 0 0 0 0 0 0 0 0 0 0 0 0 0 0 0 0 0 0 0 0 0 0 0 0 0 0
0 0 0 0 0 0 0 0 0 0 0 0 0 0 0 0 0 0 0 0 0 0 0 0 0 0 0 0 0 0 0 0 0 0 0 0 0 0 0 0 0 0 0
0 0 0 0 0 0 0 0 0 0 0 0 0 0 0 0 0 0 0 0 0 0 0 0 0 0 0 0 0 0 0 0 0 0 0 0 0 0 0 0 0 0 0
0 0 0 0 0 0 0 0 0 0 0 0 0 0 0 0 0 0 0 0 0 0 0 0 0 0 0 0 0 0 0 0 0 0 0 0 0 0 0 0 0 0 0
0 0 0 0 0 0 0 0 0 0 0 0 0 0 0 0 0 0 0 0 0 0 0 0 0 0 0 0 0 0 0 0 0 0 0 0 0 0 0 0 0 0 0
0 0 0 0 0 0 0 0 0 0 0 0 0 0 0 0 0 0 0 0 0 0 0 0 0 0 0 0 0 0 0 0 0 0 0 0 0 0 0 0 0 0 0
0 0 0 0 0 0 0 0 0 0 0 0 0 0 0 0 0 0 0 0 0 0 0 0 0 0 0 0 0 0 0 0 0 0 0 0 0 0 0 0 0 0 0
0 0 0 0 0 0 0 0 0 0 0 0 0 0 0 0 0 0 0 0 0 0 0 0 0 0 0 0 0 0 0 0 0 0 0 0 0 0 0 0 0 0 0
0 0 0 0 0 0 0 0 0 0 0 0 0 0 0 0 0 0 0 0 0 0 0 0 0 0 0 0 0 0 0 0 0 0 0 0 0 0 0 0 0 0 0
0 0 0 0 0 0 0 0 0 0 0 0 0 0 0 0 0 0 0 0 0 0 0 0 0 0 0 0 0 0 0 0 0 0 0 0 0 0 0 0 0 0 0
0 0 0 0 0 0 0 0 0 0 0 0 0 0 0 0 0 0 0 0 0 0 0 0 0 0 0 0 0 0 0 0 0 0 0 0 0 0 0 0 0 0 0
0 0 0 0 0 0 0 0 0 0 0 0 0 0 0 0 0 0 0 0 0 0 0 0 0 0 0 0 0 0 0 0 0 0 0 0 0 0 0 0 0 0 0
0 0 0 0 0 0 0 0 0 0 0 0 0 0 0 0 0 0 0 0 0 0 0 0 0 0 0 0 0 0 0 0 0 0 0 0 0 0 0 0 0 0 0
0 0 0 0 0 0 0 0 0 0 0 0 0 0 0 0 0 0 0 0 0 0 0 0 0 0 0 0 0 0 0 0 0 0 0 0 0 0 0 0 0 0 0
0 0 0 0 0 0 0 0 0 0 0 0 0 0 0 0 0 0 0 0 0 0 0 0 0 0 0 0 0 0 0 0 0 0 0 0 0 0 0 0 0 0 0
0 0 0 0 0 0 0 0 0 0 0 0 0 0 0 0 0 0 0 0 0 0 0 0 0 0 0 0 0 0 0 0 0 0 0 0 0 0 0 0 0 0 0
0 0 0 0 0 0 0 0 0 0 0 0 0 0 0 0 0 0 0 0 0 0 0 0 0 0 0 0 0 0 0 0 0 0 0 0 0 0 0 0 0 0 0
0 0 0 0 0 0 0 0 0 0 0 0 0 0 0 0 0 0 0 0 0 0 0 0 0 0 0 0 0 0 0 0 0 0 0 0 0 0 0 0 0 0 0
0 0 0 0 0 0 0 0 0 0 0 0 0 0 0 0 0 0 0 0 0 0 0 0 0 0 0 0 0 0 0 0 0 0 0 0 0 0 0 0 0 0 0
0 0 0 0 0 0 0 0 0 0 0 0 0 0 0 0 0 0 0 0 0 0 0 0 0 0 0 0 0 0 0 0 0 0 0 0 0 0 0 0 0 0 0
0 0 0 0 0 0 0 0 0 0 0 0 0 0 0 0 0 0 0 0 0 0 0 0 0 0 0 0 0 0 0 0 0 0 0 0 0 0 0 0 0 0 0
Wind_Speed
1 2 3 3 4 4 5 5 5 5 4 3 2 2 2 2 2 2 3 3 3 3 2 1 1 1 0 0 0 1 1 1 1 1 2 2 1 1 1 2 2 2 2
1 2 3 3 3 4 4 4 4 4 4 3 2 1 1 1 2 2 3 3 3 3 2 2 1 1 1 0 0 1 1 1 1 1 1 2 2 2 2 2 2 2 2
1 1 2 2 3 4 4 3 4 4 4 4 3 3 2 2 2 3 3 4 4 3 3 2 1 1 1 1 1 1 1 1 0 0 1 1 2 2 2 1 1 2 2
0 0 1 2 2 2 3 3 4 4 4 3 3 3 2 2 3 3 3 4 4 4 3 2 2 1 1 0 1 0 1 2 1 0 0 0 1 1 2 2 1 2 2
1 1 0 1 1 2 3 3 4 4 5 4 3 2 2 2 3 3 4 4 4 4 4 3 2 2 1 1 1 1 1 1 2 1 1 0 0 1 1 2 2 2 2
1 0 1 1 2 2 3 3 4 4 4 4 4 3 3 3 4 4 4 4 3 3 4 4 2 2 2 1 1 1 1 1 2 2 1 1 1 1 1 2 2 3 2
1 1 0 1 2 2 3 3 3 4 4 4 3 3 3 2 3 4 4 4 3 3 4 4 3 3 3 2 2 1 1 2 2 2 2 2 2 1 2 2 2 3 3
1 1 1 1 1 2 2 3 3 3 4 4 4 3 3 2 2 3 3 4 3 4 4 4 4 4 3 3 2 2 2 2 2 3 3 2 2 2 2 2 2 2 3
1 1 1 1 1 2 2 2 3 3 3 3 4 4 3 3 3 4 3 3 4 4 5 5 4 4 3 3 3 2 3 3 3 3 3 3 3 2 3 2 3 3 3
1 1 2 2 2 1 2 2 3 3 3 3 3 3 4 3 4 3 4 4 5 5 5 5 5 4 4 3 2 3 3 3 3 3 3 3 3 3 3 3 3 3 4
2 2 2 2 2 2 2 2 3 3 3 4 3 3 4 4 3 3 4 4 4 5 5 5 5 5 4 3 3 3 3 4 4 3 3 4 4 3 3 3 3 4 4
1 2 2 2 2 2 3 3 3 3 3 3 3 3 4 4 4 4 4 4 4 5 5 5 5 5 5 4 4 4 4 4 4 4 4 5 4 5 4 3 4 4 4
2 2 2 2 2 3 3 3 3 3 4 4 3 3 3 3 4 4 4 4 4 5 5 5 5 5 5 5 5 5 5 5 5 5 5 5 5 5 4 4 4 4 4
2 2 2 2 3 3 3 3 3 3 4 4 3 3 3 3 4 4 4 4 4 5 5 5 5 6 6 6 6 5 5 5 5 5 5 5 5 6 5 5 5 4 4
3 3 3 3 3 3 3 3 3 3 3 3 3 3 3 3 3 4 4 4 5 5 5 5 5 6 5 5 6 6 6 6 6 5 5 5 6 8 7 5 4 4 4
4 4 3 3 3 4 4 4 4 3 3 3 3 4 4 4 4 4 4 4 5 5 5 5 5 6 5 9 11 9 6 5 6 6 5 5 6 8 10 11 10 8 6
4 4 4 4 4 4 4 4 4 3 2 3 3 3 4 4 4 4 4 4 5 5 5 5 5 6 7 11 12 12 7 5 5 5 5 5 5 7 5 8 10 10 12
4 4 4 4 3 3 3 3 3 2 2 3 3 3 3 4 4 4 4 5 4 4 5 6 6 6 8 12 12 13 7 5 5 5 5 5 5 6 6 5 6 6 7
4 4 3 3 3 3 3 2 2 2 2 3 4 4 3 4 4 4 5 4 4 4 5 5 5 6 8 11 12 11 5 5 5 5 5 5 5 9 10 6 6 6 6
3 3 2 2 3 3 2 1 2 2 4 4 4 4 3 4 4 5 4 4 4 5 5 6 5 6 6 11 12 11 4 5 5 4 5 7 8 10 10 6 5 6 6
3 2 2 2 3 2 1 2 3 4 5 4 4 4 4 4 4 4 4 4 4 5 5 6 6 5 7 10 12 11 5 5 5 5 4 4 10 11 11 9 5 8 7
2 2 2 3 3 2 1 3 4 5 3 3 4 4 4 4 4 3 4 4 4 4 5 5 6 5 6 8 10 12 10 8 5 5 4 5 10 11 10 8 8 10 8
3 2 2 3 3 2 2 3 5 3 3 3 4 4 4 4 4 3 3 3 3 3 4 4 5 5 5 6 11 11 11 11 6 5 8 9 11 10 7 8 9 7 3
2 2 2 3 4 3 3 4 4 3 2 3 4 4 3 4 3 3 3 3 3 3 4 4 5 5 5 5 5 5 6 8 7 5 7 9 9 7 7 7 5 3 3
2 2 2 4 5 4 4 4 3 2 3 3 4 4 3 3 3 3 3 4 4 4 5 4 4 5 5 7 10 6 4 4 4 4 3 3 3 3 3 3 3 3 3
2 3 3 4 4 4 4 4 3 2 3 3 4 3 3 3 3 3 4 7 7 10 10 10 8 7 9 12 12 11 11 10 8 4 3 3 3 3 3 3 3 3 3
Wind_Direction
351 32 40 42 43 36 32 27 26 21 23 12 8 4 355 350 354 4 4 357 353 350 355 357 359 360 19 355 18 94 71 35 14 24 349 336 345 22 9 356 12 8 359
23 27 38 42 38 30 24 22 18 17 18 10 353 335 326 332 335 346 357 353 350 346 343 347 329 330 320 21 38 101 97 55 36 61 20 331 331 354 356 355 21 360 352
218 355 27 28 26 20 10 8 5 13 12 13 16 5 10 4 355 349 347 343 341 342 339 327 317 312 284 244 233 185 148 160 171 58 146 170 248 317 317 329 359 346 351
200 104 38 21 13 0 5 9 10 17 16 22 28 21 10 346 325 324 324 334 341 336 338 333 339 320 303 286 257 257 202 165 185 243 284 208 175 197 303 308 321 332 337
190 191 53 6 1 7 14 12 17 20 18 21 23 22 5 337 329 333 333 335 333 335 336 333 338 328 317 307 298 290 250 201 202 201 217 227 358 196 215 277 302 314 299
191 175 30 44 23 15 17 16 19 15 13 15 15 12 357 344 341 340 333 328 327 329 339 336 329 315 306 291 278 255 253 238 228 219 207 198 198 203 210 244 277 284 285
173 167 38 10 7 9 9 12 14 4 3 6 5 358 347 336 326 323 322 324 325 324 327 329 323 314 300 291 282 265 262 248 237 227 226 228 231 219 217 232 265 277 288
186 211 251 287 326 345 357 2 358 351 352 353 348 350 349 340 324 321 319 314 309 306 314 313 312 308 310 311 294 274 264 252 242 245 238 235 236 226 219 217 225 269 277
230 257 291 292 305 329 338 339 338 341 344 343 342 345 345 343 330 325 323 315 313 315 324 318 312 309 305 303 301 281 267 253 241 242 242 239 238 232 230 222 211 221 251
308 305 305 303 305 316 330 345 340 334 334 340 335 337 336 334 328 329 328 323 318 324 327 324 318 309 304 302 291 287 280 264 255 244 242 248 237 230 230 225 228 227 233
275 291 308 318 325 337 338 336 334 337 337 334 329 328 326 329 331 327 323 320 321 328 325 321 319 314 310 307 295 286 285 278 270 261 249 253 245 233 228 229 227 228 227
284 294 303 327 334 329 328 325 325 326 324 322 320 317 320 327 327 323 320 321 326 325 322 321 319 317 317 308 292 286 285 274 272 266 255 254 251 240 230 227 229 229 229
302 313 323 317 311 314 316 314 315 315 320 323 323 323 322 322 319 319 322 329 331 330 328 329 323 318 315 308 297 283 278 270 266 265 261 259 250 247 241 232 232 230 234
295 310 313 307 308 310 314 313 313 316 321 326 327 323 320 320 321 324 328 331 332 329 328 327 321 317 313 306 304 299 287 276 272 267 262 259 251 246 241 237 233 230 230
302 295 294 296 304 312 316 315 314 318 322 324 322 315 320 325 327 327 328 329 330 326 323 322 320 319 312 307 309 301 296 287 280 273 265 260 259 258 252 246 233 226 226
279 290 293 295 297 301 307 312 308 309 316 313 310 319 327 327 328 325 327 329 327 324 323 320 317 315 313 317 316 313 301 294 287 282 274 265 263 265 265 261 254 242 236
272 280 283 280 286 290 296 295 295 303 309 308 312 320 323 322 322 322 327 324 321 322 320 316 315 311 309 316 317 315 310 298 289 282 274 274 271 275 265 264 261 257 256
267 278 284 290 292 292 297 296 299 303 304 307 308 314 317 315 318 320 318 316 314 313 312 311 310 308 310 318 319 318 314 302 295 289 276 270 268 264 263 260 259 254 253
258 265 267 272 283 288 291 295 300 305 307 301 300 303 306 306 310 310 309 307 307 306 306 305 309 308 310 317 319 320 311 304 304 298 292 285 275 273 274 266 261 267 265
269 273 282 281 279 283 288 284 292 300 291 290 292 295 295 292 292 294 297 297 296 299 305 308 309 306 305 314 319 322 310 306 305 300 294 292 295 293 289 271 260 266 269
279 280 279 276 272 275 255 271 284 278 281 291 293 293 291 285 282 288 291 295 298 305 307 307 307 307 308 314 317 319 312 305 301 301 303 301 306 303 298 289 269 269 274
295 285 279 284 283 260 229 265 272 277 287 288 289 289 289 287 292 288 292 295 297 302 305 308 310 308 307 314 316 319 317 316 302 299 300 300 305 307 305 300 293 288 283
281 278 263 285 290 262 228 254 274 284 287 289 287 288 290 286 287 282 286 293 294 295 299 303 306 310 312 311 315 316 317 316 311 301 303 308 310 312 312 311 310 305 291
285 282 278 285 289 282 265 256 274 276 273 281 288 288 287 289 288 284 280 279 279 282 289 294 298 302 307 310 311 310 313 315 313 312 311 315 319 321 320 318 321 315 296
291 277 266 270 276 280 275 278 279 269 274 279 283 286 284 284 288 287 275 275 263 266 276 278 280 291 296 301 309 312 309 309 307 318 323 326 322 320 320 321 322 321 316
281 283 276 275 280 282 282 282 275 261 265 283 288 284 283 283 286 292 297 293 289 293 290 289 288 285 289 300 306 310 311 312 318 318 310 311 311 308 309 309 310 311 310